| time (UTC) | temp C | wind direction | speed KPH | gust KPH | rain 1hr cm | rain 24hr cm | rain mn cm | humidity % | barometer mb |
| 20260505123023 | 8 | 224 | 0.0 | 0.0 | 0.00 | 0.00 | 0.00 | 100 | 1022.0 |
| 20260505122638 | 8 | 224 | 0.0 | 0.0 | 0.00 | 0.00 | 0.00 | 100 | 1022.0 |
| 20260505122023 | 8 | 223 | 0.0 | 1.6 | 0.00 | 0.00 | 0.00 | 100 | 1022.0 |
| 20260505121523 | 8 | 215 | 1.6 | 3.2 | 0.00 | 0.00 | 0.00 | 100 | 1022.0 |
| 20260505121023 | 8 | 204 | 1.6 | 3.2 | 0.00 | 0.00 | 0.00 | 100 | 1022.0 |
| 20260505120523 | 9 | 204 | 1.6 | 3.2 | 0.00 | 0.00 | 0.00 | 100 | 1022.0 |
| 20260505120023 | 9 | 212 | 1.6 | 4.8 | 0.00 | 0.00 | 0.00 | 100 | 1022.0 |
| 20260505115523 | 9 | 218 | 1.6 | 4.8 | 0.00 | 0.00 | 0.00 | 100 | 1022.0 |
| 20260505115022 | 8 | 222 | 1.6 | 4.8 | 0.00 | 0.00 | 0.00 | 100 | 1022.0 |
| 20260505114523 | 8 | 218 | 0.0 | 3.2 | 0.00 | 0.00 | 0.00 | 100 | 1022.0 |
| 20260505114023 | 8 | 222 | 0.0 | 3.2 | 0.00 | 0.00 | 0.00 | 100 | 1022.0 |
| 20260505113523 | 9 | 226 | 0.0 | 1.6 | 0.00 | 0.00 | 0.00 | 100 | 1022.0 |
| 20260505113023 | 9 | 223 | 1.6 | 4.8 | 0.00 | 0.00 | 0.00 | 100 | 1022.0 |
| 20260505112522 | 9 | 207 | 1.6 | 4.8 | 0.00 | 0.00 | 0.00 | 100 | 1022.0 |
| 20260505112138 | 9 | 206 | 0.0 | 3.2 | 0.00 | 0.00 | 0.00 | 100 | 1022.0 |
| 20260505111523 | 8 | 224 | 0.0 | 1.6 | 0.00 | 0.00 | 0.00 | 100 | 1022.0 |
| 20260505111022 | 8 | 228 | 0.0 | 0.0 | 0.00 | 0.00 | 0.00 | 100 | 1022.0 |
| 20260505110523 | 8 | 245 | 0.0 | 1.6 | 0.00 | 0.00 | 0.00 | 100 | 1022.0 |
| 20260505102023 | 9 | 286 | 0.0 | 0.0 | 0.00 | 0.00 | 0.00 | 100 | 1022.0 |
| 20260505101523 | 9 | 270 | 0.0 | 3.2 | 0.00 | 0.00 | 0.00 | 100 | 1022.0 |
| 20260505101023 | 10 | 269 | 1.6 | 4.8 | 0.00 | 0.00 | 0.00 | 100 | 1022.0 |
| 20260505100522 | 10 | 270 | 1.6 | 4.8 | 0.00 | 0.00 | 0.00 | 100 | 1022.0 |
| 20260505100023 | 10 | 263 | 3.2 | 4.8 | 0.00 | 0.00 | 0.00 | 100 | 1022.0 |
| 20260505095523 | 10 | 253 | 3.2 | 6.4 | 0.00 | 0.00 | 0.00 | 100 | 1022.0 |
| 20260505095023 | 10 | 246 | 4.8 | 6.4 | 0.00 | 0.00 | 0.00 | 100 | 1022.0 |
| 20260505094524 | 10 | 246 | 4.8 | 9.7 | 0.00 | 0.00 | 0.00 | 100 | 1022.0 |
| 20260505094137 | 10 | 237 | 3.2 | 8.0 | 0.00 | 0.00 | 0.00 | 100 | 1022.0 |
| 20260505093522 | 10 | 230 | 3.2 | 6.4 | 0.00 | 0.00 | 0.00 | 100 | 1022.0 |
| 20260505093023 | 10 | 238 | 4.8 | 9.7 | 0.00 | 0.00 | 0.00 | 100 | 1022.0 |
| 20260505092638 | 10 | 234 | 3.2 | 6.4 | 0.00 | 0.00 | 0.00 | 100 | 1022.0 |
| 20260505092023 | 10 | 232 | 1.6 | 6.4 | 0.00 | 0.00 | 0.00 | 100 | 1022.0 |
| 20260505091523 | 10 | 246 | 3.2 | 4.8 | 0.00 | 0.00 | 0.00 | 100 | 1022.0 |
| 20260505091022 | 10 | 261 | 3.2 | 6.4 | 0.00 | 0.00 | 0.00 | 100 | 1022.0 |
| 20260505090523 | 9 | 287 | 1.6 | 4.8 | 0.00 | 0.00 | 0.00 | 100 | 1021.0 |
| 20260505090023 | 9 | 308 | 1.6 | 4.8 | 0.00 | 0.00 | 0.00 | 100 | 1021.0 |
| 20260505085523 | 9 | 318 | 1.6 | 6.4 | 0.00 | 0.00 | 0.00 | 100 | 1021.0 |
| 20260505085022 | 9 | 313 | 0.0 | 4.8 | 0.00 | 0.00 | 0.00 | 100 | 1021.0 |
| 20260505084523 | 9 | 311 | 1.6 | 4.8 | 0.00 | 0.00 | 0.00 | 100 | 1021.0 |
| 20260505084023 | 9 | 319 | 1.6 | 6.4 | 0.00 | 0.00 | 0.00 | 100 | 1021.0 |
| 20260505083638 | 10 | 314 | 0.0 | 4.8 | 0.00 | 0.00 | 0.00 | 100 | 1021.0 |
| 20260505083022 | 10 | 305 | 1.6 | 4.8 | 0.00 | 0.00 | 0.00 | 100 | 1021.0 |
| 20260505082637 | 10 | 298 | 1.6 | 6.4 | 0.00 | 0.00 | 0.00 | 100 | 1021.0 |
| 20260505082022 | 10 | 306 | 1.6 | 6.4 | 0.00 | 0.00 | 0.00 | 100 | 1021.0 |
| 20260505081524 | 10 | 318 | 3.2 | 8.0 | 0.00 | 0.00 | 0.00 | 100 | 1021.0 |
| 20260505081023 | 10 | 319 | 1.6 | 9.7 | 0.00 | 0.00 | 0.00 | 100 | 1021.0 |
| 20260505080638 | 10 | 317 | 3.2 | 4.8 | 0.00 | 0.00 | 0.00 | 100 | 1021.0 |
| 20260505080023 | 10 | 321 | 3.2 | 9.7 | 0.00 | 0.00 | 0.00 | 100 | 1021.0 |
| 20260505075523 | 10 | 329 | 3.2 | 6.4 | 0.00 | 0.00 | 0.00 | 100 | 1021.0 |
| 20260505075023 | 10 | 330 | 3.2 | 8.0 | 0.00 | 0.00 | 0.00 | 100 | 1021.0 |
| 20260505074523 | 10 | 325 | 1.6 | 6.4 | 0.00 | 0.00 | 0.00 | 100 | 1021.0 |
| 20260505074022 | 10 | 308 | 0.0 | 3.2 | 0.00 | 0.00 | 0.00 | 100 | 1021.0 |
| 20260505073638 | 11 | 282 | 0.0 | 4.8 | 0.00 | 0.00 | 0.00 | 100 | 1021.0 |
| 20260505073023 | 11 | 288 | 0.0 | 4.8 | 0.00 | 0.00 | 0.00 | 96 | 1021.0 |
| 20260505072523 | 12 | 298 | 0.0 | 1.6 | 0.00 | 0.00 | 0.00 | 95 | 1021.0 |
| 20260505072137 | 12 | 291 | 1.6 | 4.8 | 0.00 | 0.00 | 0.00 | 94 | 1021.0 |
| 20260505071523 | 13 | 291 | 1.6 | 6.4 | 0.00 | 0.00 | 0.00 | 93 | 1021.0 |
| 20260505071023 | 13 | 283 | 1.6 | 4.8 | 0.00 | 0.00 | 0.00 | 92 | 1021.0 |
| 20260505070523 | 14 | 256 | 1.6 | 4.8 | 0.00 | 0.00 | 0.00 | 91 | 1021.0 |
| 20260505070023 | 15 | 233 | 3.2 | 6.4 | 0.00 | 0.00 | 0.00 | 90 | 1021.0 |
| 20260505065637 | 15 | 242 | 3.2 | 6.4 | 0.00 | 0.00 | 0.00 | 90 | 1021.0 |
| 20260505065022 | 16 | 253 | 3.2 | 6.4 | 0.00 | 0.00 | 0.00 | 86 | 1020.0 |
| 20260505064523 | 15 | 257 | 4.8 | 6.4 | 0.00 | 0.00 | 0.00 | 87 | 1020.0 |
| 20260505064138 | 15 | 286 | 4.8 | 8.0 | 0.00 | 0.00 | 0.00 | 86 | 1020.0 |
| 20260505063523 | 16 | 296 | 4.8 | 11.3 | 0.00 | 0.00 | 0.00 | 86 | 1020.0 |
| 20260505063024 | 16 | 275 | 4.8 | 12.9 | 0.00 | 0.00 | 0.00 | 84 | 1020.0 |
| 20260505062637 | 16 | 258 | 4.8 | 9.7 | 0.00 | 0.00 | 0.00 | 84 | 1020.0 |
| 20260505062022 | 16 | 258 | 8.0 | 12.9 | 0.00 | 0.00 | 0.00 | 83 | 1020.0 |
| 20260505061524 | 16 | 280 | 8.0 | 14.5 | 0.00 | 0.00 | 0.00 | 82 | 1020.0 |
| 20260505061023 | 17 | 278 | 6.4 | 14.5 | 0.00 | 0.00 | 0.00 | 82 | 1020.0 |
| 20260505060522 | 17 | 270 | 6.4 | 16.1 | 0.00 | 0.00 | 0.00 | 83 | 1020.0 |
| 20260505060023 | 16 | 266 | 4.8 | 14.5 | 0.00 | 0.00 | 0.00 | 85 | 1020.0 |
| 20260505055523 | 16 | 262 | 4.8 | 11.3 | 0.00 | 0.00 | 0.00 | 88 | 1020.0 |
| 20260505055023 | 15 | 278 | 4.8 | 9.7 | 0.00 | 0.00 | 0.00 | 91 | 1020.0 |
| 20260505054523 | 15 | 292 | 4.8 | 11.3 | 0.00 | 0.00 | 0.00 | 92 | 1020.0 |
| 20260505054022 | 15 | 295 | 6.4 | 11.3 | 0.00 | 0.00 | 0.00 | 91 | 1020.0 |
| 20260505053523 | 15 | 295 | 4.8 | 12.9 | 0.00 | 0.00 | 0.00 | 90 | 1020.0 |
| 20260505053024 | 15 | 288 | 4.8 | 9.7 | 0.00 | 0.00 | 0.00 | 90 | 1020.0 |
| 20260505052523 | 15 | 275 | 6.4 | 9.7 | 0.00 | 0.00 | 0.00 | 89 | 1020.0 |
| 20260505052023 | 15 | 283 | 6.4 | 12.9 | 0.00 | 0.00 | 0.00 | 90 | 1020.0 |
| 20260505051523 | 15 | 283 | 6.4 | 12.9 | 0.00 | 0.00 | 0.00 | 90 | 1020.0 |
| 20260505051137 | 15 | 281 | 6.4 | 14.5 | 0.00 | 0.00 | 0.00 | 90 | 1020.0 |
| 20260505050638 | 15 | 289 | 6.4 | 12.9 | 0.00 | 0.00 | 0.00 | 90 | 1020.0 |
| 20260505041524 | 15 | 291 | 6.4 | 12.9 | 0.00 | 0.00 | 0.00 | 86 | 1020.0 |
| 20260505041137 | 15 | 302 | 6.4 | 11.3 | 0.00 | 0.00 | 0.00 | 87 | 1020.0 |
| 20260505040523 | 15 | 300 | 4.8 | 9.7 | 0.00 | 0.00 | 0.00 | 87 | 1020.0 |
| 20260505040024 | 16 | 296 | 6.4 | 11.3 | 0.00 | 0.00 | 0.00 | 86 | 1020.0 |
| 20260505035638 | 16 | 301 | 6.4 | 14.5 | 0.00 | 0.00 | 0.00 | 84 | 1020.0 |
| 20260505035137 | 16 | 291 | 6.4 | 12.9 | 0.00 | 0.00 | 0.00 | 81 | 1020.0 |
| 20260505034523 | 16 | 282 | 6.4 | 12.9 | 0.00 | 0.00 | 0.00 | 82 | 1020.0 |
| 20260505034023 | 17 | 281 | 6.4 | 11.3 | 0.00 | 0.00 | 0.00 | 82 | 1020.0 |
| 20260505033523 | 16 | 273 | 6.4 | 11.3 | 0.00 | 0.00 | 0.00 | 84 | 1019.0 |
| 20260505033138 | 16 | 284 | 4.8 | 11.3 | 0.00 | 0.00 | 0.00 | 88 | 1019.0 |
| 20260505032522 | 15 | 300 | 4.8 | 9.7 | 0.00 | 0.00 | 0.00 | 85 | 1019.0 |
| 20260505032022 | 16 | 283 | 4.8 | 11.3 | 0.00 | 0.00 | 0.00 | 82 | 1019.0 |
| 20260505031638 | 17 | 281 | 4.8 | 11.3 | 0.00 | 0.00 | 0.00 | 79 | 1019.0 |
| 20260505031024 | 17 | 294 | 6.4 | 11.3 | 0.00 | 0.00 | 0.00 | 80 | 1019.0 |
| 20260505030522 | 17 | 289 | 6.4 | 12.9 | 0.00 | 0.00 | 0.00 | 80 | 1019.0 |
| 20260505030023 | 16 | 272 | 6.4 | 11.3 | 0.00 | 0.00 | 0.00 | 80 | 1019.0 |
| 20260505025523 | 16 | 274 | 6.4 | 14.5 | 0.00 | 0.00 | 0.00 | 84 | 1019.0 |
| 20260505025023 | 17 | 269 | 4.8 | 11.3 | 0.00 | 0.00 | 0.00 | 84 | 1019.0 |
| 20260505024523 | 16 | 274 | 3.2 | 8.0 | 0.00 | 0.00 | 0.00 | 87 | 1019.0 |
| 20260505024022 | 16 | 292 | 4.8 | 9.7 | 0.00 | 0.00 | 0.00 | 86 | 1019.0 |
| 20260505023523 | 15 | 284 | 3.2 | 11.3 | 0.00 | 0.00 | 0.00 | 87 | 1020.0 |
| 20260505023023 | 16 | 274 | 4.8 | 9.7 | 0.00 | 0.00 | 0.00 | 88 | 1020.0 |
| 20260505022523 | 16 | 290 | 4.8 | 11.3 | 0.00 | 0.00 | 0.00 | 90 | 1020.0 |
| 20260505022022 | 16 | 309 | 3.2 | 9.7 | 0.00 | 0.00 | 0.00 | 90 | 1020.0 |
| 20260505021523 | 15 | 319 | 4.8 | 6.4 | 0.00 | 0.00 | 0.00 | 90 | 1020.0 |
| 20260505021023 | 15 | 316 | 6.4 | 9.7 | 0.00 | 0.00 | 0.00 | 91 | 1020.0 |
| 20260505020638 | 15 | 309 | 8.0 | 14.5 | 0.00 | 0.00 | 0.00 | 91 | 1020.0 |
| 20260505020023 | 15 | 302 | 6.4 | 12.9 | 0.00 | 0.00 | 0.00 | 92 | 1020.0 |
| 20260505015637 | 15 | 291 | 4.8 | 11.3 | 0.00 | 0.00 | 0.00 | 94 | 1020.0 |
| 20260505015138 | 13 | 282 | 6.4 | 9.7 | 0.00 | 0.00 | 0.00 | 94 | 1020.0 |
| 20260505014523 | 14 | 277 | 4.8 | 16.1 | 0.00 | 0.00 | 0.00 | 93 | 1020.0 |
| 20260505014022 | 14 | 276 | 6.4 | 8.0 | 0.00 | 0.00 | 0.00 | 92 | 1020.0 |
| 20260505013522 | 14 | 271 | 6.4 | 12.9 | 0.00 | 0.00 | 0.00 | 93 | 1020.0 |
| 20260505013023 | 14 | 262 | 4.8 | 9.7 | 0.00 | 0.00 | 0.00 | 93 | 1020.0 |
| 20260505012638 | 14 | 221 | 4.8 | 9.7 | 0.00 | 0.00 | 0.00 | 93 | 1020.0 |
| 20260505012022 | 13 | 196 | 4.8 | 11.3 | 0.00 | 0.00 | 0.00 | 93 | 1020.0 |
| 20260505011523 | 14 | 222 | 4.8 | 8.0 | 0.00 | 0.00 | 0.00 | 92 | 1020.0 |
| 20260505011022 | 14 | 203 | 3.2 | 9.7 | 0.00 | 0.00 | 0.00 | 92 | 1020.0 |
| 20260505010523 | 14 | 181 | 1.6 | 4.8 | 0.00 | 0.00 | 0.00 | 94 | 1020.0 |
| 20260505010023 | 15 | 213 | 3.2 | 8.0 | 0.00 | 0.00 | 0.00 | 92 | 1020.0 |
| 20260505005522 | 15 | 219 | 4.8 | 12.9 | 0.00 | 0.00 | 0.00 | 92 | 1020.0 |
| 20260505005022 | 15 | 210 | 6.4 | 11.3 | 0.00 | 0.00 | 0.00 | 92 | 1020.0 |
| 20260505004638 | 15 | 209 | 6.4 | 12.9 | 0.00 | 0.00 | 0.00 | 94 | 1020.0 |
| 20260505004138 | 15 | 236 | 4.8 | 14.5 | 0.00 | 0.00 | 0.00 | 94 | 1020.0 |
| 20260505003637 | 15 | 259 | 4.8 | 8.0 | 0.00 | 0.00 | 0.00 | 96 | 1020.0 |
| 20260505003023 | 15 | 242 | 4.8 | 9.7 | 0.00 | 0.00 | 0.00 | 98 | 1020.0 |
| 20260505002523 | 14 | 241 | 6.4 | 12.9 | 0.00 | 0.00 | 0.00 | 98 | 1020.0 |
| 20260505002023 | 15 | 239 | 4.8 | 11.3 | 0.00 | 0.00 | 0.00 | 100 | 1020.0 |
| 20260505001523 | 14 | 217 | 4.8 | 11.3 | 0.00 | 0.00 | 0.00 | 100 | 1020.0 |
| 20260505001023 | 13 | 228 | 6.4 | 11.3 | 0.00 | 0.00 | 0.00 | 100 | 1020.0 |
| 20260505000522 | 14 | 243 | 6.4 | 11.3 | 0.00 | 0.00 | 0.00 | 100 | 1020.0 |
| 20260505000023 | 13 | 240 | 3.2 | 9.7 | 0.00 | 0.00 | 0.00 | 100 | 1020.0 |
| 20260504235638 | 12 | 241 | 3.2 | 8.0 | 0.00 | 0.00 | 0.00 | 100 | 1020.0 |
| 20260504235023 | 12 | 237 | 4.8 | 8.0 | 0.00 | 0.00 | 0.00 | 100 | 1020.0 |
| 20260504234523 | 12 | 229 | 4.8 | 9.7 | 0.00 | 0.00 | 0.00 | 100 | 1020.0 |
| 20260504234023 | 12 | 235 | 6.4 | 11.3 | 0.00 | 0.00 | 0.00 | 100 | 1020.0 |
| 20260504233523 | 11 | 242 | 3.2 | 9.7 | 0.00 | 0.00 | 0.00 | 100 | 1020.0 |
| 20260504233138 | 12 | 287 | 1.6 | 6.4 | 0.00 | 0.00 | 0.00 | 100 | 1020.0 |
| 20260504232523 | 12 | 330 | 0.0 | 4.8 | 0.00 | 0.00 | 0.00 | 100 | 1020.0 |
| 20260504232022 | 12 | 330 | 0.0 | 3.2 | 0.00 | 0.00 | 0.00 | 100 | 1020.0 |
| 20260504231523 | 12 | 322 | 0.0 | 3.2 | 0.00 | 0.00 | 0.00 | 100 | 1020.0 |
| 20260504231023 | 12 | 329 | 0.0 | 3.2 | 0.00 | 0.00 | 0.00 | 100 | 1020.0 |
| 20260504230523 | 12 | 292 | 0.0 | 3.2 | 0.00 | 0.00 | 0.00 | 100 | 1020.0 |
| 20260504230023 | 11 | 216 | 0.0 | 1.6 | 0.00 | 0.00 | 0.00 | 100 | 1020.0 |
| 20260504225523 | 11 | 219 | 1.6 | 4.8 | 0.00 | 0.00 | 0.00 | 100 | 1020.0 |
| 20260504225023 | 11 | 280 | 1.6 | 4.8 | 0.00 | 0.00 | 0.00 | 100 | 1019.0 |
| 20260504224522 | 11 | 322 | 1.6 | 4.8 | 0.00 | 0.00 | 0.00 | 100 | 1019.0 |
| 20260504224022 | 11 | 333 | 1.6 | 3.2 | 0.00 | 0.00 | 0.00 | 100 | 1019.0 |
| 20260504223523 | 11 | 335 | 3.2 | 4.8 | 0.00 | 0.00 | 0.00 | 100 | 1019.0 |
| 20260504223023 | 11 | 352 | 3.2 | 6.4 | 0.00 | 0.00 | 0.00 | 100 | 1019.0 |
| 20260504222523 | 11 | 20 | 3.2 | 6.4 | 0.00 | 0.00 | 0.00 | 100 | 1019.0 |
| 20260504222022 | 10 | 31 | 4.8 | 6.4 | 0.00 | 0.00 | 0.00 | 100 | 1019.0 |
| 20260504221638 | 10 | 25 | 3.2 | 6.4 | 0.00 | 0.00 | 0.00 | 100 | 1019.0 |
| 20260504221022 | 11 | 359 | 3.2 | 4.8 | 0.00 | 0.00 | 0.00 | 100 | 1019.0 |
| 20260504220523 | 11 | 340 | 3.2 | 6.4 | 0.00 | 0.00 | 0.00 | 100 | 1019.0 |
| 20260504220023 | 11 | 346 | 3.2 | 4.8 | 0.00 | 0.00 | 0.00 | 100 | 1019.0 |
| 20260504215638 | 10 | 358 | 3.2 | 4.8 | 0.00 | 0.00 | 0.00 | 100 | 1019.0 |
| 20260504215023 | 9 | 3 | 4.8 | 6.4 | 0.00 | 0.00 | 0.00 | 100 | 1018.0 |
| 20260504214522 | 9 | 10 | 4.8 | 8.0 | 0.00 | 0.00 | 0.00 | 100 | 1018.0 |
| 20260504214022 | 9 | 19 | 4.8 | 8.0 | 0.00 | 0.00 | 0.00 | 100 | 1018.0 |
| 20260504213637 | 9 | 23 | 4.8 | 8.0 | 0.00 | 0.00 | 0.00 | 100 | 1018.0 |
| 20260504213023 | 8 | 16 | 3.2 | 4.8 | 0.00 | 0.00 | 0.00 | 100 | 1018.0 |
| 20260504212523 | 8 | 358 | 1.6 | 4.8 | 0.00 | 0.00 | 0.00 | 100 | 1018.0 |
| 20260504212137 | 8 | 320 | 1.6 | 4.8 | 0.00 | 0.00 | 0.00 | 100 | 1018.0 |
| 20260504211523 | 8 | 290 | 1.6 | 6.4 | 0.00 | 0.00 | 0.00 | 100 | 1018.0 |
| 20260504211022 | 8 | 288 | 3.2 | 6.4 | 0.00 | 0.00 | 0.00 | 100 | 1018.0 |
| 20260504210638 | 8 | 287 | 4.8 | 9.7 | 0.00 | 0.00 | 0.00 | 100 | 1018.0 |
| 20260504210023 | 8 | 298 | 4.8 | 9.7 | 0.00 | 0.00 | 0.00 | 100 | 1018.0 |
| 20260504205523 | 8 | 308 | 3.2 | 9.7 | 0.00 | 0.00 | 0.00 | 100 | 1018.0 |
| 20260504205023 | 8 | 300 | 3.2 | 8.0 | 0.00 | 0.00 | 0.00 | 100 | 1018.0 |
| 20260504204522 | 9 | 286 | 3.2 | 8.0 | 0.00 | 0.00 | 0.00 | 100 | 1018.0 |
| 20260504204022 | 9 | 288 | 4.8 | 8.0 | 0.00 | 0.00 | 0.00 | 100 | 1018.0 |
| 20260504203523 | 10 | 291 | 4.8 | 8.0 | 0.00 | 0.00 | 0.00 | 100 | 1018.0 |
| 20260504203138 | 10 | 297 | 3.2 | 8.0 | 0.00 | 0.00 | 0.00 | 100 | 1018.0 |
| 20260504202523 | 10 | 283 | 3.2 | 6.4 | 0.00 | 0.00 | 0.00 | 100 | 1018.0 |
| 20260504202022 | 10 | 276 | 3.2 | 6.4 | 0.00 | 0.00 | 0.00 | 100 | 1017.0 |
| 20260504201524 | 10 | 285 | 1.6 | 4.8 | 0.00 | 0.00 | 0.00 | 100 | 1017.0 |
| 20260504201023 | 10 | 271 | 1.6 | 3.2 | 0.00 | 0.00 | 0.00 | 100 | 1017.0 |
| 20260504200523 | 10 | 254 | 1.6 | 4.8 | 0.00 | 0.00 | 0.00 | 100 | 1017.0 |
| 20260504200023 | 10 | 249 | 3.2 | 6.4 | 0.00 | 0.00 | 0.00 | 100 | 1017.0 |
| 20260504195523 | 10 | 243 | 4.8 | 9.7 | 0.00 | 0.00 | 0.00 | 100 | 1017.0 |
| 20260504195137 | 10 | 240 | 4.8 | 11.3 | 0.00 | 0.00 | 0.00 | 100 | 1017.0 |
| 20260504194638 | 10 | 246 | 3.2 | 8.0 | 0.00 | 0.00 | 0.00 | 100 | 1017.0 |
| 20260504194022 | 10 | 243 | 3.2 | 6.4 | 0.00 | 0.00 | 0.00 | 100 | 1017.0 |
| 20260504193522 | 10 | 237 | 4.8 | 12.9 | 0.00 | 0.00 | 0.00 | 100 | 1017.0 |
| 20260504193024 | 10 | 240 | 4.8 | 11.3 | 0.00 | 0.00 | 0.00 | 100 | 1017.0 |
| 20260504192523 | 10 | 239 | 6.4 | 11.3 | 0.00 | 0.00 | 0.00 | 100 | 1017.0 |
| 20260504192023 | 10 | 238 | 6.4 | 11.3 | 0.00 | 0.00 | 0.00 | 100 | 1017.0 |
| 20260504191523 | 10 | 239 | 6.4 | 17.7 | 0.00 | 0.00 | 0.00 | 100 | 1017.0 |
| 20260504191022 | 10 | 233 | 6.4 | 14.5 | 0.00 | 0.00 | 0.00 | 100 | 1017.0 |
| 20260504190522 | 10 | 224 | 6.4 | 14.5 | 0.00 | 0.00 | 0.00 | 100 | 1017.0 |
| 20260504190138 | 10 | 214 | 6.4 | 12.9 | 0.00 | 0.00 | 0.00 | 100 | 1017.0 |
| 20260504185523 | 10 | 214 | 6.4 | 12.9 | 0.00 | 0.00 | 0.00 | 100 | 1017.0 |
| 20260504185138 | 10 | 222 | 6.4 | 14.5 | 0.00 | 0.00 | 0.00 | 100 | 1017.0 |
| 20260504184523 | 10 | 229 | 6.4 | 12.9 | 0.00 | 0.00 | 0.00 | 100 | 1017.0 |
| 20260504184022 | 10 | 240 | 6.4 | 14.5 | 0.00 | 0.00 | 0.00 | 100 | 1017.0 |
| 20260504183522 | 10 | 246 | 6.4 | 12.9 | 0.00 | 0.00 | 0.00 | 100 | 1017.0 |
| 20260504183023 | 10 | 245 | 6.4 | 12.9 | 0.00 | 0.00 | 0.00 | 100 | 1017.0 |
| 20260504182523 | 10 | 240 | 4.8 | 12.9 | 0.00 | 0.00 | 0.00 | 100 | 1017.0 |
| 20260504182023 | 10 | 244 | 6.4 | 11.3 | 0.00 | 0.00 | 0.00 | 100 | 1017.0 |
| 20260504181523 | 10 | 249 | 8.0 | 16.1 | 0.00 | 0.00 | 0.00 | 100 | 1017.0 |
| 20260504181022 | 11 | 241 | 8.0 | 17.7 | 0.00 | 0.00 | 0.00 | 100 | 1017.0 |
| 20260504180522 | 11 | 247 | 6.4 | 17.7 | 0.00 | 0.00 | 0.00 | 100 | 1017.0 |
| 20260504180023 | 11 | 248 | 8.0 | 17.7 | 0.00 | 0.00 | 0.00 | 100 | 1017.0 |
| 20260504175523 | 11 | 251 | 8.0 | 17.7 | 0.00 | 0.00 | 0.00 | 100 | 1017.0 |
| 20260504175022 | 11 | 258 | 8.0 | 19.3 | 0.00 | 0.00 | 0.00 | 100 | 1016.0 |
| 20260504174523 | 11 | 254 | 8.0 | 20.9 | 0.00 | 0.00 | 0.00 | 100 | 1016.0 |
| 20260504174023 | 11 | 250 | 8.0 | 19.3 | 0.00 | 0.00 | 0.00 | 100 | 1016.0 |
| 20260504173638 | 11 | 247 | 8.0 | 16.1 | 0.00 | 0.00 | 0.00 | 100 | 1016.0 |
| 20260504173137 | 11 | 242 | 8.0 | 14.5 | 0.00 | 0.00 | 0.00 | 100 | 1016.0 |
| 20260504172522 | 11 | 247 | 8.0 | 16.1 | 0.00 | 0.00 | 0.00 | 100 | 1016.0 |
| 20260504172022 | 11 | 262 | 6.4 | 17.7 | 0.00 | 0.00 | 0.00 | 100 | 1016.0 |
| 20260504171523 | 11 | 263 | 4.8 | 9.7 | 0.00 | 0.00 | 0.00 | 100 | 1016.0 |
| 20260504171138 | 11 | 268 | 4.8 | 14.5 | 0.00 | 0.00 | 0.00 | 100 | 1016.0 |
| 20260504170523 | 11 | 277 | 4.8 | 9.7 | 0.00 | 0.00 | 0.00 | 100 | 1016.0 |
| 20260504151022 | 11 | 293 | 8.0 | 17.7 | 0.00 | 0.00 | 0.00 | 100 | 1016.0 |
| 20260504150638 | 11 | 291 | 9.7 | 20.9 | 0.00 | 0.00 | 0.00 | 100 | 1016.0 |
| 20260504141022 | 11 | 304 | 6.4 | 12.9 | 0.00 | 0.00 | 0.00 | 100 | 1016.0 |
| 20260504140522 | 11 | 303 | 4.8 | 11.3 | 0.00 | 0.00 | 0.00 | 100 | 1016.0 |
| 20260504130522 | 12 | 282 | 4.8 | 11.3 | 0.00 | 0.36 | 0.36 | 99 | 1016.0 |